NPT165 EGAA-EGNX

Flight info

Callsign NPT165
Flight time 0h 39m
Altitude 25000
Route LISBO L603 PEPOD Q38 MAKUX
Aircraft B738/M-SDE2E3FGHIRWXY/LB1

Departure

Time 2026-05-04 20:52
Airport Belfast International Airport (EGAA)

Arrival

Time 2026-05-04 21:31
Airport East Midlands Airport (EGNX)
Time Latitude Longitude Altitude Speed Heading
2026-05-04 20:07 54.65985 -6.22273 271 ft 0 kts 335°
2026-05-04 20:39 54.65982 -6.22270 273 ft 2 kts 335°
2026-05-04 20:39 54.65967 -6.22259 272 ft 2 kts 344°
2026-05-04 20:40 54.65951 -6.22254 273 ft 2 kts 360°
2026-05-04 20:40 54.65934 -6.22256 275 ft 2 kts 21°
2026-05-04 20:40 54.65921 -6.22272 274 ft 2 kts 63°
2026-05-04 20:40 54.65920 -6.22278 273 ft 0 kts 67°
2026-05-04 20:41 54.65920 -6.22277 273 ft 0 kts 67°
2026-05-04 20:41 54.65922 -6.22270 274 ft 1 kts 66°
2026-05-04 20:42 54.65927 -6.22248 276 ft 3 kts 65°
2026-05-04 20:42 54.65928 -6.22245 275 ft 0 kts 65°
2026-05-04 20:42 54.65930 -6.22237 275 ft 1 kts 65°
2026-05-04 20:42 54.65933 -6.22228 277 ft 0 kts 65°
2026-05-04 20:44 54.65933 -6.22227 277 ft 0 kts 65°
2026-05-04 20:44 54.65941 -6.22198 272 ft 4 kts 66°
2026-05-04 20:45 54.65954 -6.22134 275 ft 7 kts 81°
2026-05-04 20:45 54.65930 -6.22072 271 ft 7 kts 151°
2026-05-04 20:45 54.65883 -6.22029 271 ft 8 kts 155°
2026-05-04 20:45 54.65825 -6.22024 273 ft 9 kts 207°
2026-05-04 20:46 54.65791 -6.22112 271 ft 10 kts 248°
2026-05-04 20:46 54.65772 -6.22227 271 ft 11 kts 259°
2026-05-04 20:46 54.65763 -6.22360 271 ft 12 kts 264°
2026-05-04 20:46 54.65751 -6.22503 273 ft 12 kts 261°
2026-05-04 20:47 54.65744 -6.22644 271 ft 6 kts 266°
2026-05-04 20:47 54.65740 -6.22728 271 ft 8 kts 264°
2026-05-04 20:47 54.65729 -6.22824 271 ft 9 kts 252°
2026-05-04 20:47 54.65698 -6.22922 273 ft 10 kts 236°
2026-05-04 20:48 54.65657 -6.23024 271 ft 11 kts 235°
2026-05-04 20:48 54.65611 -6.23138 273 ft 12 kts 233°
2026-05-04 20:48 54.65558 -6.23255 271 ft 13 kts 233°
2026-05-04 20:48 54.65487 -6.23349 271 ft 13 kts 202°
2026-05-04 20:49 54.65445 -6.23377 271 ft 0 kts 201°
2026-05-04 20:49 54.65442 -6.23379 271 ft 0 kts 201°
2026-05-04 20:50 54.65374 -6.23395 271 ft 14 kts 167°
2026-05-04 20:50 54.65295 -6.23331 271 ft 10 kts 127°
2026-05-04 20:51 54.65297 -6.23267 271 ft 0 kts 68°
2026-05-04 20:51 54.65298 -6.23266 271 ft 1 kts 68°
2026-05-04 20:51 54.65317 -6.23191 271 ft 24 kts 65°
2026-05-04 20:51 54.65567 -6.22281 275 ft 143 kts 63°
2026-05-04 20:52 54.66030 -6.20499 1187 ft 180 kts 63°
2026-05-04 20:52 54.66604 -6.18311 2239 ft 212 kts 62°
2026-05-04 20:52 54.67149 -6.16014 3664 ft 204 kts 72°
2026-05-04 20:52 54.67092 -6.13570 4877 ft 220 kts 109°
2026-05-04 20:53 54.66086 -6.11231 5017 ft 269 kts 146°
2026-05-04 20:53 54.64342 -6.10111 5045 ft 270 kts 176°
2026-05-04 20:53 54.62441 -6.09858 5729 ft 276 kts 178°
2026-05-04 20:53 54.60522 -6.09615 7111 ft 277 kts 178°
2026-05-04 20:54 54.58583 -6.09383 8376 ft 282 kts 178°
2026-05-04 20:54 54.56603 -6.09158 9625 ft 288 kts 178°
2026-05-04 20:54 54.54575 -6.08937 10730 ft 299 kts 178°
2026-05-04 20:54 54.52403 -6.08713 11233 ft 328 kts 178°
2026-05-04 20:55 54.50072 -6.08460 12099 ft 341 kts 175°
2026-05-04 20:55 54.47809 -6.07151 13225 ft 350 kts 149°
2026-05-04 20:55 54.46034 -6.04271 14407 ft 354 kts 129°
2026-05-04 20:55 54.44627 -6.00829 15394 ft 361 kts 121°
2026-05-04 20:56 54.43363 -5.97063 16352 ft 367 kts 121°
2026-05-04 20:56 54.42070 -5.93235 16895 ft 371 kts 121°
2026-05-04 20:56 54.40768 -5.89388 17098 ft 375 kts 121°
2026-05-04 20:56 54.39425 -5.85553 17093 ft 374 kts 124°
2026-05-04 20:57 54.37928 -5.81916 17105 ft 373 kts 127°
2026-05-04 20:57 54.36371 -5.78356 17108 ft 373 kts 128°
2026-05-04 20:57 54.34809 -5.74809 17104 ft 373 kts 127°
2026-05-04 20:57 54.33259 -5.71253 17101 ft 372 kts 127°
2026-05-04 20:58 54.31724 -5.67695 17098 ft 372 kts 127°
2026-05-04 20:58 54.30200 -5.64139 17516 ft 379 kts 127°
2026-05-04 20:58 54.28640 -5.60498 18587 ft 379 kts 126°
2026-05-04 20:58 54.27081 -5.56862 19560 ft 380 kts 126°
2026-05-04 20:59 54.25514 -5.53179 20364 ft 386 kts 126°
2026-05-04 20:59 54.23925 -5.49421 21147 ft 393 kts 126°
2026-05-04 20:59 54.22317 -5.45615 21943 ft 398 kts 126°
2026-05-04 20:59 54.20681 -5.41756 22735 ft 403 kts 126°
2026-05-04 21:00 54.19023 -5.37856 23499 ft 409 kts 126°
2026-05-04 21:00 54.17342 -5.33897 24152 ft 414 kts 126°
2026-05-04 21:00 54.15648 -5.29900 24788 ft 417 kts 126°
2026-05-04 21:00 54.13943 -5.25877 25055 ft 418 kts 126°
2026-05-04 21:01 54.12244 -5.21876 25096 ft 414 kts 125°
2026-05-04 21:01 54.10581 -5.17965 25102 ft 413 kts 125°
2026-05-04 21:01 54.08891 -5.13993 25109 ft 415 kts 125°
2026-05-04 21:01 54.07196 -5.10018 25110 ft 415 kts 125°
2026-05-04 21:02 54.05497 -5.06040 25103 ft 416 kts 125°
2026-05-04 21:02 54.03791 -5.02053 25103 ft 416 kts 126°
2026-05-04 21:02 54.02087 -4.98074 25099 ft 416 kts 126°
2026-05-04 21:02 54.00383 -4.94103 25097 ft 416 kts 126°
2026-05-04 21:03 53.98677 -4.90137 25097 ft 415 kts 126°
2026-05-04 21:03 53.96972 -4.86191 25098 ft 414 kts 126°
2026-05-04 21:03 53.95237 -4.82280 25090 ft 414 kts 127°
2026-05-04 21:03 53.93489 -4.78405 25087 ft 414 kts 127°
2026-05-04 21:04 53.91755 -4.74586 25087 ft 414 kts 127°
2026-05-04 21:04 53.90001 -4.70729 25094 ft 413 kts 127°
2026-05-04 21:04 53.88252 -4.66873 25104 ft 412 kts 126°
2026-05-04 21:04 53.86513 -4.63030 25094 ft 410 kts 126°
2026-05-04 21:05 53.84775 -4.59196 25093 ft 409 kts 126°
2026-05-04 21:05 53.83045 -4.55384 25092 ft 408 kts 126°
2026-05-04 21:05 53.81312 -4.51573 25092 ft 408 kts 126°
2026-05-04 21:05 53.79581 -4.47774 25091 ft 408 kts 126°
2026-05-04 21:06 53.77848 -4.43976 25087 ft 408 kts 126°
2026-05-04 21:06 53.76113 -4.40179 25091 ft 408 kts 126°
2026-05-04 21:06 53.74426 -4.36494 25095 ft 409 kts 126°
2026-05-04 21:06 53.72680 -4.32686 25095 ft 410 kts 126°
2026-05-04 21:07 53.70958 -4.28935 25092 ft 409 kts 127°
2026-05-04 21:07 53.69214 -4.25142 25091 ft 409 kts 126°
2026-05-04 21:07 53.67472 -4.21359 25093 ft 409 kts 127°
2026-05-04 21:07 53.65727 -4.17577 25099 ft 407 kts 127°
2026-05-04 21:08 53.63987 -4.13821 25097 ft 406 kts 127°
2026-05-04 21:08 53.62250 -4.10080 25089 ft 404 kts 127°
2026-05-04 21:08 53.60524 -4.06361 25086 ft 403 kts 127°
2026-05-04 21:08 53.58800 -4.02649 25087 ft 402 kts 127°
2026-05-04 21:09 53.57074 -3.98937 25096 ft 403 kts 127°
2026-05-04 21:09 53.55367 -3.95268 25092 ft 403 kts 127°
2026-05-04 21:09 53.53638 -3.91557 25084 ft 403 kts 127°
2026-05-04 21:09 53.51908 -3.87850 25084 ft 403 kts 127°
2026-05-04 21:10 53.50178 -3.84147 25084 ft 403 kts 126°
2026-05-04 21:10 53.48448 -3.80444 25087 ft 403 kts 127°
2026-05-04 21:10 53.46716 -3.76750 25088 ft 403 kts 127°
2026-05-04 21:10 53.44982 -3.73058 25087 ft 403 kts 127°
2026-05-04 21:11 53.43246 -3.69370 25087 ft 403 kts 127°
2026-05-04 21:11 53.41511 -3.65684 25085 ft 403 kts 127°
2026-05-04 21:11 53.39773 -3.62000 25084 ft 403 kts 127°
2026-05-04 21:11 53.38035 -3.58319 25088 ft 403 kts 127°
2026-05-04 21:12 53.36298 -3.54647 25084 ft 402 kts 127°
2026-05-04 21:12 53.34590 -3.51039 25085 ft 401 kts 127°
2026-05-04 21:12 53.32854 -3.47380 25084 ft 401 kts 127°
2026-05-04 21:12 53.31121 -3.43731 25086 ft 401 kts 127°
2026-05-04 21:13 53.29384 -3.40077 25087 ft 401 kts 127°
2026-05-04 21:13 53.27646 -3.36428 25089 ft 402 kts 127°
2026-05-04 21:13 53.25905 -3.32778 25085 ft 402 kts 127°
2026-05-04 21:13 53.24162 -3.29128 25083 ft 402 kts 127°
2026-05-04 21:14 53.22418 -3.25478 25075 ft 402 kts 127°
2026-05-04 21:14 53.20669 -3.21829 25084 ft 402 kts 127°
2026-05-04 21:14 53.18936 -3.18167 24779 ft 404 kts 125°
2026-05-04 21:14 53.17386 -3.14301 24263 ft 397 kts 121°
2026-05-04 21:15 53.15953 -3.10394 23664 ft 393 kts 120°
2026-05-04 21:15 53.14567 -3.06573 22976 ft 388 kts 120°
2026-05-04 21:15 53.13165 -3.02763 22359 ft 383 kts 121°
2026-05-04 21:15 53.11768 -2.99039 21770 ft 377 kts 122°
2026-05-04 21:16 53.10373 -2.95365 21164 ft 373 kts 123°
2026-05-04 21:16 53.08990 -2.91743 20573 ft 370 kts 123°
2026-05-04 21:16 53.07743 -2.88024 20009 ft 367 kts 110°
2026-05-04 21:16 53.07219 -2.83930 19793 ft 358 kts 99°
2026-05-04 21:17 53.06891 -2.79773 19547 ft 370 kts 98°
2026-05-04 21:17 53.06579 -2.75478 19276 ft 377 kts 97°
2026-05-04 21:17 53.06266 -2.71200 18999 ft 379 kts 98°
2026-05-04 21:17 53.05937 -2.66849 18722 ft 378 kts 98°
2026-05-04 21:18 53.05599 -2.62526 18446 ft 377 kts 98°
2026-05-04 21:18 53.05253 -2.58207 18147 ft 376 kts 98°
2026-05-04 21:18 53.04903 -2.53905 17850 ft 375 kts 98°
2026-05-04 21:18 53.04551 -2.49608 17562 ft 374 kts 98°
2026-05-04 21:19 53.04199 -2.45332 17273 ft 373 kts 98°
2026-05-04 21:19 53.03847 -2.41060 17023 ft 373 kts 98°
2026-05-04 21:19 53.03493 -2.36800 16759 ft 372 kts 98°
2026-05-04 21:19 53.03141 -2.32576 16449 ft 366 kts 98°
2026-05-04 21:20 53.02959 -2.28436 15962 ft 363 kts 89°
2026-05-04 21:20 53.03103 -2.24261 15347 ft 361 kts 86°
2026-05-04 21:20 53.03306 -2.20110 14706 ft 360 kts 85°
2026-05-04 21:20 53.03507 -2.15980 14125 ft 357 kts 86°
2026-05-04 21:21 53.03692 -2.11882 13548 ft 354 kts 86°
2026-05-04 21:21 53.03863 -2.07821 13027 ft 349 kts 86°
2026-05-04 21:21 53.04021 -2.03842 12628 ft 341 kts 86°
2026-05-04 21:21 53.04171 -1.99959 12272 ft 333 kts 86°
2026-05-04 21:22 53.04316 -1.96175 11932 ft 322 kts 86°
2026-05-04 21:22 53.04453 -1.92558 11610 ft 306 kts 86°
2026-05-04 21:22 53.04584 -1.89081 11313 ft 299 kts 86°
2026-05-04 21:22 53.04712 -1.85663 11039 ft 302 kts 86°
2026-05-04 21:23 53.04842 -1.82164 10744 ft 304 kts 86°
2026-05-04 21:23 53.04972 -1.78661 10442 ft 303 kts 86°
2026-05-04 21:23 53.05100 -1.75186 10143 ft 299 kts 86°
2026-05-04 21:23 53.05223 -1.71783 10003 ft 288 kts 86°
2026-05-04 21:24 53.05339 -1.68458 9562 ft 288 kts 88°
2026-05-04 21:24 53.05042 -1.65212 9237 ft 284 kts 110°
2026-05-04 21:24 53.04301 -1.62200 8954 ft 279 kts 112°
2026-05-04 21:24 53.03571 -1.59234 8664 ft 276 kts 112°
2026-05-04 21:25 53.02854 -1.56301 8380 ft 272 kts 114°
2026-05-04 21:25 53.01741 -1.53827 8082 ft 268 kts 143°
2026-05-04 21:25 53.00060 -1.52748 7776 ft 264 kts 178°
2026-05-04 21:25 52.98266 -1.53313 7498 ft 259 kts 200°
2026-05-04 21:26 52.96598 -1.54301 7208 ft 257 kts 200°
2026-05-04 21:26 52.94926 -1.55292 6958 ft 254 kts 200°
2026-05-04 21:26 52.93263 -1.56284 6716 ft 254 kts 200°
2026-05-04 21:26 52.91595 -1.57282 6474 ft 255 kts 200°
2026-05-04 21:27 52.89925 -1.58284 6216 ft 255 kts 200°
2026-05-04 21:27 52.88256 -1.59287 5956 ft 254 kts 200°
2026-05-04 21:27 52.86579 -1.60132 5668 ft 252 kts 187°
2026-05-04 21:27 52.84841 -1.60017 5359 ft 250 kts 164°
2026-05-04 21:28 52.83408 -1.58492 5043 ft 247 kts 128°
2026-05-04 21:28 52.82735 -1.55992 4739 ft 243 kts 94°
2026-05-04 21:28 52.82753 -1.53204 4356 ft 243 kts 87°
2026-05-04 21:28 52.82790 -1.50468 3971 ft 232 kts 86°
2026-05-04 21:29 52.82830 -1.47882 3576 ft 218 kts 86°
2026-05-04 21:29 52.82887 -1.45435 3050 ft 206 kts 85°
2026-05-04 21:29 52.82982 -1.43145 2366 ft 198 kts 84°
2026-05-04 21:29 52.83049 -1.41048 2020 ft 166 kts 86°
2026-05-04 21:30 52.83025 -1.39132 1397 ft 163 kts 92°
2026-05-04 21:30 52.83006 -1.37299 891 ft 153 kts 86°
2026-05-04 21:30 52.83062 -1.35657 477 ft 137 kts 90°
2026-05-04 21:30 52.83078 -1.34189 310 ft 114 kts 88°
2026-05-04 21:31 52.83104 -1.32637 300 ft 44 kts 87°
2026-05-04 21:31 52.83113 -1.32197 302 ft 31 kts 88°
2026-05-04 21:31 52.83118 -1.31853 299 ft 29 kts 88°
2026-05-04 21:32 52.83125 -1.31531 298 ft 27 kts 87°
2026-05-04 21:32 52.83087 -1.31326 295 ft 19 kts 163°
2026-05-04 21:32 52.82981 -1.31325 295 ft 14 kts 201°
2026-05-04 21:32 52.82955 -1.31467 295 ft 14 kts 269°
2026-05-04 21:33 52.82952 -1.31620 296 ft 13 kts 267°
2026-05-04 21:33 52.82914 -1.31710 300 ft 10 kts 180°
2026-05-04 21:33 52.82842 -1.31693 297 ft 11 kts 186°
2026-05-04 21:33 52.82831 -1.31693 297 ft 0 kts 178°
2026-05-04 21:34 52.82829 -1.31693 297 ft 1 kts 178°
2026-05-04 21:34 52.82818 -1.31692 297 ft 2 kts 176°